DLH3EK ENGM-EDDF

Flight info

Callsign DLH3EK
Flight time 1h 49m
Altitude 37000
Route VIPPA DCT RAXLU DCT RIMET T157 KERAX KERAX5A
Aircraft A320/M-SDE2E3FGIJ1LORWXYZ/HB1

Departure

Time 2026-05-06 13:44
Airport Oslo-Gardermoen International Airport (ENGM)

Arrival

Time 2026-05-06 15:33
Airport Frankfurt Main Airport (EDDF)
Time Latitude Longitude Altitude Speed Heading
2026-05-06 12:42 60.19719 11.10242 685 ft 0 kts 286°
2026-05-06 13:31 60.19716 11.10266 681 ft 4 kts 286°
2026-05-06 13:31 60.19708 11.10318 682 ft 4 kts 286°
2026-05-06 13:32 60.19706 11.10330 681 ft 0 kts 286°
2026-05-06 13:39 60.19709 11.10328 684 ft 1 kts 312°
2026-05-06 13:39 60.19714 11.10337 685 ft 1 kts 32°
2026-05-06 13:39 60.19718 11.10433 681 ft 12 kts 85°
2026-05-06 13:40 60.19791 11.10520 683 ft 13 kts 14°
2026-05-06 13:40 60.19870 11.10579 684 ft 10 kts 45°
2026-05-06 13:40 60.19873 11.10695 684 ft 8 kts 106°
2026-05-06 13:40 60.19857 11.10800 684 ft 7 kts 106°
2026-05-06 13:41 60.19843 11.10908 683 ft 9 kts 105°
2026-05-06 13:41 60.19814 11.11111 683 ft 20 kts 105°
2026-05-06 13:41 60.19770 11.11370 682 ft 19 kts 121°
2026-05-06 13:41 60.19726 11.11603 684 ft 18 kts 105°
2026-05-06 13:42 60.19680 11.11834 683 ft 16 kts 134°
2026-05-06 13:42 60.19590 11.11936 682 ft 13 kts 174°
2026-05-06 13:42 60.19545 11.11918 683 ft 0 kts 196°
2026-05-06 13:43 60.19542 11.11916 683 ft 4 kts 196°
2026-05-06 13:43 60.19260 11.11755 683 ft 81 kts 196°
2026-05-06 13:44 60.18513 11.11324 678 ft 140 kts 196°
2026-05-06 13:44 60.17836 11.10925 805 ft 160 kts 197°
2026-05-06 13:44 60.16794 11.10297 1621 ft 153 kts 196°
2026-05-06 13:44 60.15765 11.09707 2183 ft 165 kts 195°
2026-05-06 13:45 60.14593 11.09042 2603 ft 184 kts 196°
2026-05-06 13:45 60.11733 11.07830 3272 ft 236 kts 189°
2026-05-06 13:45 60.10028 11.07449 3904 ft 253 kts 187°
2026-05-06 13:46 60.08260 11.07092 4857 ft 258 kts 187°
2026-05-06 13:46 60.06484 11.06718 5817 ft 261 kts 188°
2026-05-06 13:46 60.04690 11.05881 6725 ft 265 kts 200°
2026-05-06 13:46 60.02938 11.04657 7002 ft 269 kts 201°
2026-05-06 13:47 60.01175 11.03366 7919 ft 269 kts 201°
2026-05-06 13:47 59.99411 11.02059 8866 ft 272 kts 201°
2026-05-06 13:47 59.97629 11.00742 9754 ft 275 kts 201°
2026-05-06 13:47 59.95803 10.99399 10391 ft 289 kts 202°
2026-05-06 13:48 59.93855 10.97915 10811 ft 308 kts 203°
2026-05-06 13:48 59.91839 10.96344 11552 ft 313 kts 204°
2026-05-06 13:48 59.89800 10.94746 12377 ft 316 kts 204°
2026-05-06 13:48 59.87745 10.93141 13173 ft 318 kts 205°
2026-05-06 13:49 59.85671 10.91532 13962 ft 320 kts 205°
2026-05-06 13:49 59.83591 10.89923 14715 ft 322 kts 206°
2026-05-06 13:49 59.81496 10.88301 15449 ft 323 kts 206°
2026-05-06 13:49 59.79393 10.86675 16146 ft 326 kts 206°
2026-05-06 13:50 59.77274 10.85044 16853 ft 328 kts 207°
2026-05-06 13:50 59.75142 10.83410 17540 ft 330 kts 207°
2026-05-06 13:50 59.72996 10.81767 18209 ft 332 kts 207°
2026-05-06 13:50 59.70836 10.80120 18872 ft 333 kts 208°
2026-05-06 13:51 59.68672 10.78467 19522 ft 335 kts 207°
2026-05-06 13:51 59.66498 10.76799 20155 ft 336 kts 207°
2026-05-06 13:51 59.64314 10.75123 20773 ft 337 kts 207°
2026-05-06 13:51 59.62119 10.73447 21376 ft 338 kts 207°
2026-05-06 13:52 59.59922 10.71775 21945 ft 340 kts 207°
2026-05-06 13:52 59.57707 10.70097 22486 ft 341 kts 207°
2026-05-06 13:52 59.55486 10.68417 23035 ft 343 kts 207°
2026-05-06 13:52 59.53256 10.66731 23564 ft 344 kts 207°
2026-05-06 13:53 59.51019 10.65036 24091 ft 345 kts 207°
2026-05-06 13:53 59.48774 10.63335 24584 ft 346 kts 207°
2026-05-06 13:53 59.46521 10.61634 25076 ft 348 kts 207°
2026-05-06 13:53 59.44257 10.59922 25528 ft 349 kts 207°
2026-05-06 13:54 59.41982 10.58206 25978 ft 351 kts 207°
2026-05-06 13:54 59.39699 10.56486 26411 ft 352 kts 207°
2026-05-06 13:54 59.37403 10.54756 26866 ft 354 kts 207°
2026-05-06 13:54 59.35102 10.53029 27275 ft 355 kts 207°
2026-05-06 13:55 59.32785 10.51305 27684 ft 357 kts 207°
2026-05-06 13:55 59.30462 10.49579 28093 ft 358 kts 207°
2026-05-06 13:55 59.28132 10.47844 28488 ft 359 kts 207°
2026-05-06 13:55 59.25794 10.46101 28877 ft 360 kts 207°
2026-05-06 13:56 59.23446 10.44352 29255 ft 362 kts 207°
2026-05-06 13:56 59.21093 10.42605 29605 ft 363 kts 207°
2026-05-06 13:56 59.18721 10.40851 29973 ft 364 kts 206°
2026-05-06 13:56 59.16352 10.39101 30337 ft 365 kts 206°
2026-05-06 13:57 59.13967 10.37335 30640 ft 367 kts 206°
2026-05-06 13:57 59.11570 10.35562 30891 ft 371 kts 206°
2026-05-06 13:57 59.09149 10.33772 31121 ft 374 kts 206°
2026-05-06 13:57 59.06707 10.31965 31364 ft 377 kts 206°
2026-05-06 13:58 59.04248 10.30151 31637 ft 379 kts 206°
2026-05-06 13:58 59.01781 10.28343 31997 ft 379 kts 206°
2026-05-06 13:58 58.99318 10.26544 32306 ft 380 kts 206°
2026-05-06 13:58 58.96844 10.24740 32632 ft 380 kts 205°
2026-05-06 13:59 58.94331 10.23351 32932 ft 387 kts 197°
2026-05-06 13:59 58.92168 10.22870 33186 ft 395 kts 189°
2026-05-06 13:59 58.90135 10.22858 33402 ft 398 kts 187°
2026-05-06 13:59 58.88474 10.22880 33590 ft 398 kts 187°
2026-05-06 14:00 58.86774 10.22909 33785 ft 398 kts 186°
2026-05-06 14:00 58.85009 10.22937 33988 ft 398 kts 186°
2026-05-06 14:00 58.83796 10.22955 34126 ft 398 kts 186°
2026-05-06 14:00 58.82641 10.22972 34246 ft 399 kts 186°
2026-05-06 14:01 58.80935 10.22996 34412 ft 399 kts 186°
2026-05-06 14:01 58.79331 10.23018 34583 ft 399 kts 186°
2026-05-06 14:01 58.78048 10.23037 34704 ft 399 kts 186°
2026-05-06 14:01 58.76494 10.23060 34855 ft 400 kts 186°
2026-05-06 14:02 58.74716 10.23087 35013 ft 400 kts 186°
2026-05-06 14:02 58.72783 10.23113 35180 ft 401 kts 186°
2026-05-06 14:02 58.70043 10.23145 35419 ft 402 kts 186°
2026-05-06 14:02 58.67294 10.23171 35659 ft 402 kts 186°
2026-05-06 14:03 58.64499 10.23199 35900 ft 403 kts 186°
2026-05-06 14:03 58.61717 10.23226 36120 ft 404 kts 186°
2026-05-06 14:03 58.58923 10.23257 36344 ft 405 kts 186°
2026-05-06 14:03 58.56099 10.23295 36554 ft 406 kts 185°
2026-05-06 14:04 58.53282 10.23334 36791 ft 406 kts 185°
2026-05-06 14:04 58.50455 10.23372 36941 ft 405 kts 185°
2026-05-06 14:04 58.44874 10.23446 36970 ft 398 kts 185°
2026-05-06 14:05 58.39352 10.23510 36971 ft 396 kts 185°
2026-05-06 14:05 58.33844 10.23569 36974 ft 395 kts 185°
2026-05-06 14:06 58.28348 10.23619 36970 ft 395 kts 185°
2026-05-06 14:06 58.22851 10.23677 36968 ft 395 kts 185°
2026-05-06 14:07 58.17350 10.23753 36968 ft 395 kts 185°
2026-05-06 14:07 58.11852 10.23822 36969 ft 395 kts 185°
2026-05-06 14:08 58.06352 10.23875 36967 ft 395 kts 185°
2026-05-06 14:08 58.00854 10.23922 36965 ft 395 kts 185°
2026-05-06 14:09 57.95353 10.23985 36966 ft 395 kts 185°
2026-05-06 14:09 57.89847 10.24054 36968 ft 395 kts 185°
2026-05-06 14:10 57.84345 10.24114 36968 ft 395 kts 185°
2026-05-06 14:10 57.78843 10.24171 36974 ft 396 kts 185°
2026-05-06 14:11 57.73335 10.24243 36980 ft 395 kts 185°
2026-05-06 14:11 57.67830 10.24307 36980 ft 396 kts 185°
2026-05-06 14:12 57.62325 10.24365 36980 ft 396 kts 185°
2026-05-06 14:12 57.56781 10.24416 36978 ft 396 kts 185°
2026-05-06 14:13 57.51275 10.24475 36978 ft 395 kts 185°
2026-05-06 14:13 57.45778 10.24553 36976 ft 395 kts 185°
2026-05-06 14:14 57.40283 10.24618 36968 ft 395 kts 185°
2026-05-06 14:14 57.34789 10.24677 36966 ft 395 kts 185°
2026-05-06 14:15 57.29296 10.24725 36964 ft 395 kts 185°
2026-05-06 14:15 57.23803 10.24774 36961 ft 395 kts 185°
2026-05-06 14:16 57.18313 10.24842 36964 ft 395 kts 185°
2026-05-06 14:16 57.12814 10.24901 36963 ft 395 kts 185°
2026-05-06 14:17 57.07321 10.24962 36962 ft 395 kts 184°
2026-05-06 14:17 57.01818 10.25025 36965 ft 395 kts 184°
2026-05-06 14:18 56.96319 10.25086 36965 ft 395 kts 184°
2026-05-06 14:18 56.90812 10.25134 36963 ft 396 kts 184°
2026-05-06 14:19 56.85306 10.25186 36961 ft 396 kts 184°
2026-05-06 14:19 56.79788 10.25250 36962 ft 396 kts 184°
2026-05-06 14:20 56.74271 10.25312 36961 ft 397 kts 184°
2026-05-06 14:20 56.68747 10.25375 36961 ft 397 kts 184°
2026-05-06 14:21 56.63223 10.25424 36960 ft 397 kts 184°
2026-05-06 14:21 56.58629 10.25473 36958 ft 398 kts 184°
2026-05-06 14:22 56.53091 10.25537 36957 ft 398 kts 184°
2026-05-06 14:22 56.47560 10.25601 36955 ft 398 kts 184°
2026-05-06 14:23 56.42021 10.25655 36953 ft 398 kts 184°
2026-05-06 14:23 56.36481 10.25702 36951 ft 399 kts 183°
2026-05-06 14:24 56.30930 10.25759 36950 ft 399 kts 183°
2026-05-06 14:24 56.25379 10.25818 36955 ft 399 kts 183°
2026-05-06 14:25 56.19824 10.25876 36957 ft 399 kts 183°
2026-05-06 14:25 56.14262 10.25936 36957 ft 400 kts 183°
2026-05-06 14:26 56.08702 10.25998 36958 ft 400 kts 183°
2026-05-06 14:26 56.03134 10.26050 36961 ft 400 kts 184°
2026-05-06 14:27 55.97567 10.26103 36963 ft 400 kts 183°
2026-05-06 14:27 55.91993 10.26170 36960 ft 400 kts 183°
2026-05-06 14:28 55.86424 10.26227 36957 ft 400 kts 183°
2026-05-06 14:28 55.80852 10.26273 36957 ft 401 kts 183°
2026-05-06 14:29 55.75590 10.26324 36957 ft 401 kts 183°
2026-05-06 14:29 55.70022 10.26373 36958 ft 400 kts 183°
2026-05-06 14:30 55.64444 10.26425 36955 ft 401 kts 183°
2026-05-06 14:30 55.58869 10.26484 36955 ft 401 kts 183°
2026-05-06 14:31 55.53293 10.26544 36954 ft 401 kts 183°
2026-05-06 14:31 55.47721 10.26605 36955 ft 400 kts 183°
2026-05-06 14:32 55.42146 10.26653 36955 ft 400 kts 183°
2026-05-06 14:32 55.36583 10.26709 36954 ft 400 kts 182°
2026-05-06 14:33 55.31000 10.26778 36952 ft 400 kts 182°
2026-05-06 14:33 55.25433 10.26839 36950 ft 400 kts 182°
2026-05-06 14:34 55.19862 10.26882 36948 ft 400 kts 182°
2026-05-06 14:34 55.14251 10.26938 36942 ft 400 kts 182°
2026-05-06 14:35 55.08722 10.26992 36938 ft 400 kts 182°
2026-05-06 14:35 55.03115 10.27043 36931 ft 400 kts 182°
2026-05-06 14:36 54.97552 10.27091 36917 ft 400 kts 182°
2026-05-06 14:36 54.92021 10.27140 36913 ft 400 kts 182°
2026-05-06 14:37 54.86416 10.27189 36915 ft 400 kts 182°
2026-05-06 14:37 54.80843 10.27250 36917 ft 401 kts 182°
2026-05-06 14:38 54.76086 10.27296 36922 ft 401 kts 182°
2026-05-06 14:38 54.70507 10.27348 36919 ft 401 kts 182°
2026-05-06 14:39 54.65067 10.27284 36924 ft 401 kts 182°
2026-05-06 14:39 54.59481 10.27151 36914 ft 401 kts 182°
2026-05-06 14:40 54.53900 10.27029 36914 ft 402 kts 182°
2026-05-06 14:40 54.48302 10.26929 36917 ft 402 kts 182°
2026-05-06 14:41 54.42711 10.26847 36917 ft 402 kts 182°
2026-05-06 14:41 54.37117 10.26763 36921 ft 402 kts 182°
2026-05-06 14:42 54.31514 10.26671 36920 ft 402 kts 182°
2026-05-06 14:42 54.25914 10.26577 36919 ft 403 kts 182°
2026-05-06 14:43 54.20313 10.26472 36920 ft 403 kts 182°
2026-05-06 14:43 54.14720 10.26377 36920 ft 402 kts 182°
2026-05-06 14:44 54.09121 10.26281 36907 ft 402 kts 182°
2026-05-06 14:45 54.00715 10.26139 36912 ft 403 kts 182°
2026-05-06 14:45 53.95110 10.26045 36899 ft 403 kts 182°
2026-05-06 14:46 53.89502 10.25957 36908 ft 403 kts 182°
2026-05-06 14:46 53.83900 10.25860 36899 ft 403 kts 182°
2026-05-06 14:47 53.78250 10.25757 36901 ft 403 kts 182°
2026-05-06 14:47 53.72679 10.25672 36903 ft 403 kts 182°
2026-05-06 14:48 53.67071 10.25590 36895 ft 403 kts 182°
2026-05-06 14:48 53.61468 10.25495 36908 ft 403 kts 182°
2026-05-06 14:49 53.55859 10.25395 36906 ft 403 kts 182°
2026-05-06 14:49 53.50252 10.25296 36903 ft 403 kts 182°
2026-05-06 14:50 53.44644 10.25202 36899 ft 403 kts 182°
2026-05-06 14:50 53.39026 10.25111 36887 ft 404 kts 182°
2026-05-06 14:51 53.33406 10.25019 36887 ft 404 kts 182°
2026-05-06 14:51 53.27793 10.24941 36886 ft 404 kts 182°
2026-05-06 14:52 53.22177 10.24857 36886 ft 404 kts 182°
2026-05-06 14:52 53.16555 10.24762 36878 ft 404 kts 182°
2026-05-06 14:53 53.10937 10.24669 36873 ft 404 kts 183°
2026-05-06 14:53 53.05316 10.24572 36867 ft 404 kts 182°
2026-05-06 14:54 53.00238 10.24493 36862 ft 404 kts 183°
2026-05-06 14:54 52.94622 10.24408 36858 ft 404 kts 183°
2026-05-06 14:55 52.88999 10.24316 36855 ft 404 kts 183°
2026-05-06 14:55 52.83380 10.24221 36853 ft 404 kts 183°
2026-05-06 14:56 52.77765 10.24138 36851 ft 404 kts 183°
2026-05-06 14:56 52.72138 10.24055 36851 ft 404 kts 183°
2026-05-06 14:57 52.66511 10.23965 36849 ft 404 kts 183°
2026-05-06 14:57 52.60849 10.23878 36846 ft 404 kts 183°
2026-05-06 14:58 52.55265 10.23784 36844 ft 404 kts 183°
2026-05-06 14:58 52.49611 10.23699 36845 ft 404 kts 183°
2026-05-06 14:59 52.44941 10.23640 36845 ft 403 kts 183°
2026-05-06 14:59 52.39308 10.23557 36831 ft 403 kts 183°
2026-05-06 15:00 52.33711 10.23468 36833 ft 404 kts 184°
2026-05-06 15:00 52.28100 10.23369 36826 ft 403 kts 184°
2026-05-06 15:01 52.22483 10.23281 36820 ft 403 kts 183°
2026-05-06 15:01 52.16869 10.23200 36820 ft 404 kts 184°
2026-05-06 15:02 52.11254 10.23120 36813 ft 403 kts 184°
2026-05-06 15:02 52.05636 10.23039 36784 ft 403 kts 183°
2026-05-06 15:02 52.02848 10.22998 36495 ft 397 kts 184°
2026-05-06 15:03 52.00108 10.22956 36047 ft 393 kts 184°
2026-05-06 15:03 51.97353 10.22910 35205 ft 399 kts 184°
2026-05-06 15:03 51.94560 10.22861 34522 ft 401 kts 184°
2026-05-06 15:03 51.91793 10.22810 34112 ft 395 kts 184°
2026-05-06 15:04 51.89056 10.22761 33806 ft 392 kts 184°
2026-05-06 15:04 51.86335 10.22715 33555 ft 390 kts 184°
2026-05-06 15:04 51.83630 10.22670 33303 ft 388 kts 184°
2026-05-06 15:04 51.80937 10.22628 33055 ft 387 kts 183°
2026-05-06 15:05 51.78243 10.22590 32804 ft 385 kts 183°
2026-05-06 15:05 51.75567 10.22551 32554 ft 384 kts 183°
2026-05-06 15:05 51.72895 10.22510 32304 ft 383 kts 183°
2026-05-06 15:05 51.70238 10.22471 32051 ft 381 kts 183°
2026-05-06 15:06 51.67591 10.22432 31803 ft 380 kts 183°
2026-05-06 15:06 51.64956 10.22395 31548 ft 378 kts 182°
2026-05-06 15:06 51.62334 10.22358 31300 ft 376 kts 182°
2026-05-06 15:06 51.59718 10.22317 31052 ft 375 kts 182°
2026-05-06 15:07 51.57118 10.22274 30800 ft 373 kts 182°
2026-05-06 15:07 51.54525 10.22235 30549 ft 372 kts 182°
2026-05-06 15:07 51.51944 10.22202 30298 ft 370 kts 182°
2026-05-06 15:07 51.49377 10.22169 30052 ft 368 kts 182°
2026-05-06 15:08 51.46819 10.22134 29798 ft 367 kts 182°
2026-05-06 15:08 51.44274 10.22096 29544 ft 365 kts 182°
2026-05-06 15:08 51.41749 10.22055 29298 ft 363 kts 182°
2026-05-06 15:08 51.39223 10.22013 29043 ft 361 kts 182°
2026-05-06 15:09 51.36714 10.21974 28797 ft 360 kts 182°
2026-05-06 15:09 51.34215 10.21936 28545 ft 358 kts 182°
2026-05-06 15:09 51.31727 10.21895 28301 ft 357 kts 182°
2026-05-06 15:09 51.29248 10.21845 28044 ft 355 kts 182°
2026-05-06 15:10 51.26752 10.21796 27787 ft 353 kts 183°
2026-05-06 15:10 51.24299 10.21745 27539 ft 352 kts 183°
2026-05-06 15:10 51.21888 10.21695 27291 ft 350 kts 183°
2026-05-06 15:10 51.19427 10.21642 27037 ft 349 kts 183°
2026-05-06 15:11 51.17003 10.21587 26786 ft 347 kts 183°
2026-05-06 15:11 51.14591 10.21532 26539 ft 346 kts 183°
2026-05-06 15:11 51.12194 10.21483 26285 ft 344 kts 183°
2026-05-06 15:11 51.09806 10.21442 26035 ft 343 kts 183°
2026-05-06 15:12 51.07457 10.21004 25618 ft 340 kts 198°
2026-05-06 15:12 51.05488 10.19283 26016 ft 307 kts 220°
2026-05-06 15:12 51.03964 10.17190 26522 ft 276 kts 217°
2026-05-06 15:12 51.02402 10.15448 25996 ft 280 kts 212°
2026-05-06 15:13 51.00688 10.13785 25103 ft 297 kts 211°
2026-05-06 15:13 50.98866 10.12064 24154 ft 313 kts 212°
2026-05-06 15:13 50.96962 10.10223 23156 ft 328 kts 213°
2026-05-06 15:13 50.94991 10.08248 22271 ft 340 kts 213°
2026-05-06 15:14 50.93010 10.06196 21677 ft 340 kts 214°
2026-05-06 15:14 50.91047 10.04117 21190 ft 339 kts 214°
2026-05-06 15:14 50.89099 10.02030 20707 ft 337 kts 215°
2026-05-06 15:14 50.87168 9.99959 20236 ft 334 kts 214°
2026-05-06 15:15 50.85244 9.97906 19743 ft 333 kts 214°
2026-05-06 15:15 50.83324 9.95867 19273 ft 332 kts 214°
2026-05-06 15:15 50.81412 9.93838 18821 ft 329 kts 214°
2026-05-06 15:15 50.79516 9.91828 18384 ft 327 kts 214°
2026-05-06 15:16 50.77638 9.89838 17949 ft 324 kts 214°
2026-05-06 15:16 50.75769 9.87855 17515 ft 322 kts 214°
2026-05-06 15:16 50.73914 9.85887 17057 ft 321 kts 214°
2026-05-06 15:16 50.72066 9.83929 16585 ft 320 kts 214°
2026-05-06 15:17 50.70220 9.81981 16149 ft 319 kts 214°
2026-05-06 15:17 50.68379 9.80042 15710 ft 318 kts 214°
2026-05-06 15:17 50.66543 9.78111 15281 ft 316 kts 214°
2026-05-06 15:17 50.64713 9.76193 14846 ft 316 kts 214°
2026-05-06 15:18 50.62887 9.74280 14413 ft 314 kts 214°
2026-05-06 15:18 50.61073 9.72378 13984 ft 314 kts 214°
2026-05-06 15:18 50.59259 9.70475 13557 ft 312 kts 214°
2026-05-06 15:18 50.57453 9.68581 13134 ft 311 kts 214°
2026-05-06 15:19 50.55700 9.66622 12857 ft 305 kts 221°
2026-05-06 15:19 50.54166 9.64415 12725 ft 294 kts 224°
2026-05-06 15:19 50.52703 9.62228 12504 ft 288 kts 224°
2026-05-06 15:19 50.51258 9.60063 12184 ft 286 kts 224°
2026-05-06 15:20 50.49823 9.57913 11817 ft 285 kts 224°
2026-05-06 15:20 50.48390 9.55771 11456 ft 284 kts 224°
2026-05-06 15:20 50.46963 9.53636 11092 ft 283 kts 224°
2026-05-06 15:20 50.45537 9.51503 10719 ft 282 kts 224°
2026-05-06 15:21 50.44121 9.49381 10348 ft 282 kts 224°
2026-05-06 15:21 50.42704 9.47254 9970 ft 281 kts 224°
2026-05-06 15:21 50.41295 9.45142 9602 ft 280 kts 224°
2026-05-06 15:21 50.39889 9.43030 9213 ft 280 kts 224°
2026-05-06 15:22 50.38487 9.40926 8820 ft 279 kts 224°
2026-05-06 15:22 50.37089 9.38825 8436 ft 278 kts 224°
2026-05-06 15:22 50.35698 9.36739 8045 ft 276 kts 224°
2026-05-06 15:22 50.34321 9.34673 7785 ft 273 kts 224°
2026-05-06 15:23 50.32948 9.32619 7798 ft 274 kts 224°
2026-05-06 15:23 50.31568 9.30557 7796 ft 274 kts 224°
2026-05-06 15:23 50.30185 9.28492 7784 ft 275 kts 224°
2026-05-06 15:23 50.28804 9.26430 7796 ft 274 kts 224°
2026-05-06 15:24 50.27425 9.24372 7796 ft 275 kts 224°
2026-05-06 15:24 50.26042 9.22307 7785 ft 275 kts 224°
2026-05-06 15:24 50.24665 9.20227 7781 ft 275 kts 228°
2026-05-06 15:24 50.23474 9.17900 7768 ft 274 kts 233°
2026-05-06 15:25 50.22354 9.15525 7425 ft 271 kts 234°
2026-05-06 15:25 50.21245 9.13153 7000 ft 271 kts 234°
2026-05-06 15:25 50.20139 9.10789 6609 ft 268 kts 234°
2026-05-06 15:25 50.19040 9.08444 6195 ft 267 kts 234°
2026-05-06 15:26 50.17945 9.06107 5800 ft 265 kts 234°
2026-05-06 15:26 50.16857 9.03795 5386 ft 263 kts 234°
2026-05-06 15:26 50.15928 9.01357 5042 ft 260 kts 246°
2026-05-06 15:26 50.15272 8.98723 5005 ft 262 kts 250°
2026-05-06 15:27 50.14665 8.96038 5006 ft 263 kts 250°
2026-05-06 15:27 50.14045 8.93366 5004 ft 258 kts 250°
2026-05-06 15:27 50.13449 8.90833 5002 ft 240 kts 250°
2026-05-06 15:27 50.12898 8.88487 5008 ft 222 kts 250°
2026-05-06 15:28 50.12384 8.86294 4935 ft 211 kts 250°
2026-05-06 15:28 50.11881 8.84158 4688 ft 210 kts 250°
2026-05-06 15:28 50.11376 8.82014 4410 ft 211 kts 250°
2026-05-06 15:28 50.10871 8.79876 4109 ft 208 kts 250°
2026-05-06 15:29 50.10380 8.77793 3825 ft 201 kts 250°
2026-05-06 15:29 50.09904 8.75778 3546 ft 196 kts 251°
2026-05-06 15:29 50.09439 8.73812 3269 ft 191 kts 251°
2026-05-06 15:29 50.08995 8.71941 3015 ft 180 kts 251°
2026-05-06 15:30 50.08575 8.70165 2792 ft 175 kts 251°
2026-05-06 15:30 50.08158 8.68408 2525 ft 171 kts 251°
2026-05-06 15:30 50.07748 8.66680 2276 ft 170 kts 251°
2026-05-06 15:30 50.07342 8.64970 2035 ft 167 kts 251°
2026-05-06 15:31 50.06950 8.63319 1795 ft 157 kts 251°
2026-05-06 15:31 50.06618 8.61920 1624 ft 144 kts 251°
2026-05-06 15:31 50.06289 8.60539 1415 ft 133 kts 251°
2026-05-06 15:32 50.05680 8.57983 1059 ft 128 kts 251°
2026-05-06 15:32 50.05372 8.56689 890 ft 131 kts 251°
2026-05-06 15:32 50.05050 8.55337 694 ft 134 kts 251°
2026-05-06 15:32 50.04723 8.53959 482 ft 133 kts 250°
2026-05-06 15:33 50.04408 8.52655 356 ft 121 kts 249°
2026-05-06 15:33 50.04185 8.51702 336 ft 61 kts 249°
2026-05-06 15:33 50.04061 8.51196 328 ft 41 kts 244°
2026-05-06 15:33 50.03916 8.50927 324 ft 22 kts 219°
2026-05-06 15:34 50.03834 8.50836 328 ft 13 kts 195°
2026-05-06 15:34 50.03795 8.50850 330 ft 2 kts 145°
2026-05-06 15:34 50.03781 8.50884 329 ft 9 kts 110°
2026-05-06 15:34 50.03790 8.50961 333 ft 8 kts 70°
2026-05-06 15:35 50.03807 8.51028 333 ft 8 kts 69°
2026-05-06 15:35 50.03835 8.51147 332 ft 12 kts 70°
2026-05-06 15:35 50.03861 8.51260 336 ft 12 kts 70°
2026-05-06 15:35 50.03899 8.51417 333 ft 16 kts 70°
2026-05-06 15:36 50.03922 8.51513 336 ft 12 kts 69°
2026-05-06 15:36 50.03945 8.51610 337 ft 8 kts 69°
2026-05-06 15:36 50.03969 8.51709 333 ft 15 kts 69°
2026-05-06 15:36 50.04022 8.51932 335 ft 24 kts 70°
2026-05-06 15:37 50.04075 8.52154 344 ft 21 kts 69°
2026-05-06 15:37 50.04120 8.52340 347 ft 17 kts 69°
2026-05-06 15:37 50.04167 8.52538 353 ft 24 kts 69°
2026-05-06 15:37 50.04230 8.52800 354 ft 25 kts 69°
2026-05-06 15:38 50.04286 8.53037 358 ft 22 kts 70°
2026-05-06 15:38 50.04336 8.53244 363 ft 20 kts 69°
2026-05-06 15:38 50.04389 8.53471 374 ft 24 kts 76°
2026-05-06 15:38 50.04411 8.53755 375 ft 26 kts 84°
2026-05-06 15:39 50.04429 8.54031 375 ft 25 kts 84°
2026-05-06 15:39 50.04447 8.54291 375 ft 24 kts 84°
2026-05-06 15:39 50.04438 8.54554 368 ft 25 kts 110°
2026-05-06 15:39 50.04351 8.54734 363 ft 21 kts 142°
2026-05-06 15:40 50.04205 8.54832 357 ft 24 kts 160°
2026-05-06 15:40 50.04074 8.54907 351 ft 11 kts 159°
2026-05-06 15:40 50.04025 8.54946 362 ft 5 kts 134°
2026-05-06 15:40 50.04022 8.55039 355 ft 13 kts 70°
2026-05-06 15:41 50.04059 8.55186 359 ft 17 kts 69°
2026-05-06 15:41 50.04101 8.55362 360 ft 18 kts 68°
2026-05-06 15:41 50.04146 8.55554 357 ft 20 kts 70°
2026-05-06 15:41 50.04196 8.55759 362 ft 21 kts 69°
2026-05-06 15:42 50.04247 8.55971 360 ft 16 kts 69°
2026-05-06 15:42 50.04286 8.56065 363 ft 8 kts 29°
2026-05-06 15:42 50.04335 8.56060 360 ft 9 kts 341°
2026-05-06 15:42 50.04410 8.56029 362 ft 11 kts
2026-05-06 15:43 50.04448 8.56098 364 ft 9 kts 69°
2026-05-06 15:43 50.04476 8.56219 356 ft 12 kts 70°
2026-05-06 15:43 50.04502 8.56326 363 ft 12 kts 70°
2026-05-06 15:43 50.04545 8.56434 362 ft 12 kts 36°
2026-05-06 15:44 50.04613 8.56493 356 ft 8 kts 58°
2026-05-06 15:44 50.04600 8.56555 356 ft 6 kts 116°
2026-05-06 15:44 50.04582 8.56614 362 ft 1 kts 114°
2026-05-06 15:44 50.04580 8.56620 359 ft 1 kts 115°